User: anonymous   Login
Location: Unspecified
(0.0000°N, 0.0000°E)
Time: 14:06:38
(UTC+00:00)
Language:

NNS O-25 - Orbit

View from above orbital plane
View from above orbital plane
View from above satellite
View from above satellite

Ground track
Ground track

The orbit data is extracted from the following two-line orbital elements,

1 19419U 88074A   23267.89882310  .00000100  00000-0  15539-3 0  9997
2 19419  90.0187  18.2986 0097157  37.5029  78.3702 13.42383782717744
Epoch (UTC): 24 September 2023 21:34:18
Eccentricity: 0.0097157
inclination: 90.0187°
perigee height: 1028 km
apogee height: 1173 km
right ascension of ascending node: 18.2986°
argument of perigee: 37.5029°
revolutions per day: 13.42383782
mean anomaly at epoch: 78.3702°
orbit number at epoch: 71774

The dashed part of the orbit path shows where the satellite is in the earth's shadow,  

DLR